EW4799 Weather Reports


time (UTC)temp
F
wind
direction
speed
knots
gust
knots
rain 1hr
in
rain 24hr
in
rain mn
in
humidity
%
barometer
mb
20260506164610 54 174 0.0 1.7 0.00 0.00 0.00 86 1020.6
20260506163102 54 0 0.0 0.9 0.00 0.00 0.00 85 1020.3
20260506161555 53 0 0.0 1.7 0.00 0.00 0.00 85 1020.1
20260506160107 53 169 0.0 2.6 0.00 0.00 0.00 85 1020.2
20260506154553 54 0 0.0 1.7 0.00 0.00 0.00 85 1020.2
20260506153055 54 0 0.0 1.7 0.00 0.00 0.00 85 1020.3
20260506151555 54 167 0.0 1.7 0.00 0.00 0.00 85 1020.2
20260506150128 54 0 0.0 0.9 0.00 0.00 0.00 85 1020.0
20260506144552 54 219 0.0 1.7 0.00 0.00 0.00 86 1020.1
20260506143050 54 0 0.0 0.9 0.00 0.00 0.00 86 1020.1
20260506141607 54 0 0.0 0.9 0.00 0.00 0.00 86 1019.8
20260506140053 54 168 0.0 1.7 0.00 0.00 0.00 86 1019.9
20260506134554 54 181 0.0 1.7 0.00 0.00 0.00 86 1019.8
20260506133106 54 0 0.0 0.9 0.00 0.00 0.00 86 1019.7
20260506131558 54 176 0.0 0.9 0.00 0.00 0.00 86 1019.6
20260506130055 54 176 0.0 1.7 0.00 0.00 0.00 86 1019.4
20260506124551 54 0 0.0 1.7 0.00 0.00 0.00 85 1019.2
20260506123056 54 0 0.0 1.7 0.00 0.00 0.00 85 1019.1
20260506121610 54 0 0.0 1.7 0.00 0.00 0.00 85 1019.1
20260506120118 54 206 0.0 1.7 0.00 0.00 0.00 84 1019.2
20260506114602 54 210 0.0 3.5 0.00 0.00 0.00 84 1018.9
20260506113056 54 300 0.0 3.5 0.00 0.00 0.00 84 1018.9
20260506111555 55 179 0.0 1.7 0.00 0.00 0.00 83 1018.8
20260506110055 55 165 0.0 2.6 0.00 0.00 0.00 83 1018.7
20260506104550 55 176 0.0 2.6 0.00 0.00 0.00 83 1018.7
20260506103053 55 198 0.0 3.5 0.00 0.00 0.00 84 1018.6
20260506101550 55 167 0.9 2.6 0.00 0.00 0.00 83 1018.5
20260506100054 55 169 0.0 4.3 0.00 0.00 0.00 84 1018.4
20260506094554 55 240 0.0 2.6 0.00 0.00 0.00 84 1018.1
20260506093054 55 181 0.9 2.6 0.00 0.00 0.00 84 1018.1
20260506091551 55 158 0.9 4.3 0.00 0.00 0.00 84 1017.9
20260506090050 54 0 0.0 1.7 0.00 0.00 0.00 84 1017.8
20260506084549 55 160 0.0 1.7 0.00 0.00 0.00 84 1017.6
20260506083053 55 181 0.0 1.7 0.00 0.00 0.00 84 1017.5
20260506081554 55 215 0.0 0.9 0.00 0.00 0.00 84 1017.4
20260506073059 55 0 0.0 0.9 0.00 0.00 0.00 85 1017.4
20260506071554 55 0 0.0 0.9 0.00 0.00 0.00 86 1017.3
20260506070115 54 0 0.0 0.0 0.00 0.00 0.00 86 1017.3
20260506061556 55 0 0.0 0.0 0.00 0.00 0.00 85 1016.9
20260506050114 58 0 0.0 0.0 0.00 0.00 0.00 81 1016.2
20260506044602 59 0 0.0 0.0 0.00 0.00 0.00 80 1016.2
20260506043051 59 0 0.0 0.0 0.00 0.00 0.00 79 1016.2
20260506041556 59 0 0.0 0.0 0.00 0.00 0.00 80 1016.2
20260506040051 59 0 0.0 0.0 0.00 0.00 0.00 79 1016.1
20260506034552 60 0 0.0 0.0 0.00 0.00 0.00 76 1015.8
20260506033052 62 0 0.0 0.0 0.00 0.00 0.00 73 1015.7
20260506031559 63 0 0.0 0.9 0.00 0.00 0.00 71 1015.5
20260506030113 64 0 0.0 0.9 0.00 0.00 0.00 69 1015.5
20260506024555 65 0 0.0 1.7 0.00 0.00 0.00 66 1015.5
20260506023056 66 186 0.0 3.5 0.00 0.00 0.00 63 1015.4
20260506021554 69 0 0.0 2.6 0.00 0.00 0.00 59 1015.4
20260506020051 70 149 0.0 2.6 0.00 0.00 0.00 56 1015.4
20260506014600 71 176 0.0 2.6 0.00 0.00 0.00 55 1015.4
20260506013052 71 177 0.0 3.5 0.00 0.00 0.00 55 1015.4
20260506011557 72 0 0.0 3.5 0.00 0.00 0.00 54 1015.5
20260506010054 71 191 0.0 3.5 0.00 0.00 0.00 54 1015.4
20260506004624 72 0 0.9 4.3 0.00 0.00 0.00 54 1015.5
20260506003053 71 167 0.9 3.5 0.00 0.00 0.00 54 1015.6
20260506001556 71 32 0.9 4.3 0.00 0.00 0.00 55 1015.8
20260506000050 70 0 0.0 2.6 0.00 0.00 0.00 58 1016.0
20260505234611 70 166 0.0 2.6 0.00 0.00 0.00 56 1016.1
20260505233051 70 0 0.9 4.3 0.00 0.00 0.00 58 1016.3
20260505231600 69 195 0.9 3.5 0.00 0.00 0.00 61 1016.3
20260505230055 66 71 0.9 3.5 0.00 0.00 0.00 66 1016.4
20260505224552 64 201 0.9 2.6 0.00 0.00 0.00 67 1016.4
20260505223102 63 170 1.7 4.3 0.00 0.00 0.00 68 1016.6
20260505221607 63 148 0.9 2.6 0.00 0.00 0.00 70 1016.7
20260505220133 63 185 0.9 2.6 0.00 0.00 0.00 71 1016.8
20260505214614 62 215 0.9 3.5 0.00 0.00 0.00 71 1016.9
20260505213100 62 200 0.0 1.7 0.00 0.00 0.00 72 1016.9
20260505211611 61 0 0.0 2.6 0.00 0.00 0.00 73 1016.9
20260505210058 61 171 0.0 2.6 0.00 0.00 0.00 74 1016.9
20260505204558 60 183 0.9 2.6 0.00 0.00 0.00 74 1017.2
20260505203059 60 179 0.0 2.6 0.00 0.00 0.00 75 1017.2
20260505201602 60 210 0.9 3.5 0.00 0.00 0.00 74 1017.1
20260505194603 59 162 0.9 2.6 0.00 0.00 0.00 76 1017.2
20260505193052 59 192 0.9 2.6 0.00 0.00 0.00 76 1017.2
20260505191556 59 202 0.0 2.6 0.00 0.00 0.00 77 1017.1
20260505184550 58 184 0.9 3.5 0.00 0.00 0.00 77 1017.0
20260505183053 58 165 0.9 2.6 0.00 0.00 0.00 78 1017.0
20260505181553 58 230 0.0 2.6 0.00 0.00 0.00 79 1017.0
20260505174549 58 171 0.0 2.6 0.00 0.00 0.00 79 1017.0
20260505173052 58 0 0.0 2.6 0.00 0.00 0.00 79 1017.0
20260505171551 58 193 0.0 2.6 0.00 0.00 0.00 80 1016.8
20260505170049 57 211 0.0 1.7 0.00 0.00 0.00 79 1016.8